Regional Weather Roundup
Issued by NWS

Home | Current Version | Previous Version | Text Only | Print | Product List | Glossary On
Versions: 1 2 3 4 5 6 7 8 9 10 11 12 13 14 15 16 17 18 19 20 21 22 23 24 25 26 27 28 29 30 31 32 33 34 35 36 37 38 39 40 41 42 43 44 45 46 47 48 49 50
864
ASUS44 KJAN 251403
RWRMS

MISSISSIPPI HOURLY WEATHER ROUNDUP
NATIONAL WEATHER SERVICE JACKSON MS
900 AM CDT FRI JUL 25 2014

NOTE: "FAIR: INDICATES FEW OR NO CLOUDS BELOW 12,000 FEET WITH NO
SIGNIFICANT WEATHER AND/OR OBSTRUCTIONS TO VISIBILITY.

MSZ001>002-007>008-010>013-018>021-025>028-034>036-251500-
NORTHWEST MISSISSIPPI

CITY           SKY/WX    TMP DP  RH WIND       PRES   REMARKS
CLARKSDALE     FAIR      72  68  88 CALM      30.09R
CLEVELAND      FAIR      71  67  88 CALM      30.07R
GREENWOOD      SUNNY     73  65  75 NE5       30.07R
GREENVILLE     SUNNY     74  66  76 CALM      30.06R
GRENADA        FAIR      72  64  78 CALM      30.07R
OXFORD         FAIR      70  63  78 CALM      30.09R
TUNICA         SUNNY     72  64  78 CALM      30.08R
$$

MSZ003>006-009-014>017-022>024-029>033-037>039-251500-
NORTHEAST MISSISSIPPI

CITY           SKY/WX    TMP DP  RH WIND       PRES   REMARKS
BELMONT        FAIR      72  67  84 CALM      30.06R
COLUMBUS AFB   SUNNY     73  65  77 CALM      30.06R
CORINTH        FAIR      68  63  83 CALM      30.07R
GOLDN TRIANGLE SUNNY     73  64  73 CALM      30.07R
STARKVILLE     FAIR      72  64  78 CALM      30.06R
TUPELO         SUNNY     74  65  73 CALM      30.06R
$$

MSZ040-058-251500-
CENTRAL MISSISSIPPI

CITY           SKY/WX    TMP DP  RH WIND       PRES   REMARKS
JACKSON INTL   SUNNY     80  68  66 CALM      30.05S
JACKSON HAWKNS SUNNY     80  66  62 CALM      30.05S
MERIDIAN KEY   SUNNY     76  68  76 NW5       30.05R
MERIDIAN NAS   MOSUNNY   77  67  71 CALM      30.05S
RAYMOND        FAIR      77  72  83 CALM      30.05S
VICKSBURG      SUNNY     78  69  73 CALM      30.05R
$$

MSZ059>079-251500-
SOUTH MISSISSIPPI

CITY           SKY/WX    TMP DP  RH WIND       PRES   REMARKS
BROOKHAVEN     FAIR      79  75  89 CALM      30.07R
COLUMBIA       FAIR      79  75  89 CALM      30.03S
HATTIESBURG    SUNNY     81  74  79 CALM      30.04R
MCCOMB         MOSUNNY   78  73  84 CALM      30.05R HAZE
NATCHEZ        SUNNY     79  73  83 CALM      30.06R
PINE BELT      MOSUNNY   81  72  74 NE5       30.05S
$$

MSZ080>082-251500-
COASTAL MISSISSIPPI

CITY           SKY/WX    TMP DP  RH WIND       PRES   REMARKS
BILOXI         SUNNY     84  77  79 VRB3      30.03R HX  94
PASCAGOULA     SUNNY     83  76  79 W3        30.03R HX  91
GULFPORT       SUNNY     86  75  69 W6        30.02R HX  95
$$



USA.gov is the U.S. government's official web portal to all federal, state and local government web resources and services.